Location: Kerb�bon
(47.7970°N, 3.3487°W)
Time: 12:29:44
(UTC+00:00)

IGS 5A - Pass Details

Date: 12 May 2021
Orbit: 583 x 588 km, 97.6° (Epoch: 06 May)

Event Time Altitude Azimuth Distance (km) Brightness Sun altitude
Exits shadow 20:31:12 - 154° (SSE) 2,106 5.7 -7.8°
Reaches altitude 10° 20:31:42 10° 153° (SSE) 1,901 5.5 -7.9°
Maximum altitude 20:35:46 61° 73° (ENE) 670 3.6 -8.4°
Drops below altitude 10° 20:39:52 10° 354° (N) 1,918 6.8 -8.9°
Sets 20:42:03 0° 351° (N) 2,824 7.8 -9.2°
